GW0136 Weather Reports


time (UTC)temp
F
wind
direction
speed
knots
gust
knots
rain 1hr
in
rain 24hr
in
rain mn
in
humidity
%
barometer
mb
20260506051022 58 325 6.1 13.9 0.00 0.12 0.12 38 1015.0
20260506050522 58 313 5.2 13.9 0.00 0.12 0.12 38 1015.1
20260506045022 59 302 1.7 4.3 0.00 0.12 0.12 37 1015.0
20260506044538 59 360 1.7 7.8 0.00 0.12 0.12 35 1014.9
20260506044024 60 0 0.9 10.4 0.00 0.12 0.12 35 1014.9
20260506043526 60 247 3.5 11.3 0.00 0.12 0.12 36 1014.9
20260506043043 60 226 7.0 11.3 0.00 0.12 0.12 36 1014.9
20260506042522 60 169 5.2 9.6 0.00 0.12 0.12 36 1014.8
20260506042023 60 207 5.2 9.6 0.00 0.12 0.12 38 1014.8
20260506041535 60 175 4.3 9.6 0.00 0.12 0.12 38 1014.8
20260506041022 60 203 5.2 10.4 0.00 0.12 0.12 38 1014.6
20260506040519 60 206 4.3 13.9 0.00 0.12 0.12 38 1014.6
20260506040037 61 186 6.1 19.1 0.00 0.12 0.12 38 1014.5
20260506035522 61 225 7.8 19.1 0.00 0.12 0.12 37 1014.4
20260506035022 61 215 4.3 11.3 0.00 0.12 0.12 38 1014.3
20260506034535 61 153 4.3 15.6 0.00 0.12 0.12 37 1014.3
20260506034023 62 185 6.1 15.6 0.00 0.12 0.12 36 1014.1
20260506033522 62 178 7.8 14.8 0.00 0.12 0.12 36 1014.1
20260506033037 61 226 6.1 13.0 0.00 0.12 0.12 35 1013.9
20260506032522 62 161 5.2 13.0 0.00 0.12 0.12 36 1013.8
20260506032022 62 206 6.1 13.0 0.00 0.12 0.12 35 1013.7
20260506031541 62 200 4.3 13.9 0.00 0.12 0.12 35 1013.6
20260506031025 62 214 7.8 16.5 0.00 0.12 0.12 34 1013.6
20260506030522 62 198 6.1 16.5 0.00 0.12 0.12 35 1013.6
20260506030035 62 172 7.0 16.5 0.00 0.12 0.12 34 1013.4
20260506025522 62 192 6.1 15.6 0.00 0.12 0.12 35 1013.3
20260506025021 62 175 5.2 10.4 0.00 0.12 0.12 35 1013.1
20260506024538 62 214 6.1 16.5 0.00 0.12 0.12 35 1013.1
20260506024022 63 180 7.0 16.5 0.00 0.12 0.12 35 1012.9
20260506023521 63 144 7.8 13.9 0.00 0.12 0.12 35 1013.0
20260506023051 63 222 4.3 10.4 0.00 0.12 0.12 35 1013.0
20260506022522 63 175 5.2 13.0 0.00 0.12 0.12 35 1012.8
20260506022026 63 206 3.5 15.6 0.00 0.12 0.12 35 1012.7
20260506021601 63 182 6.1 17.4 0.00 0.12 0.12 34 1012.6
20260506021025 63 143 7.8 17.4 0.00 0.12 0.12 34 1012.3
20260506020521 64 211 7.8 17.4 0.00 0.12 0.12 34 1012.4
20260506020035 64 186 9.6 17.4 0.00 0.12 0.12 33 1012.4
20260506015525 64 188 6.1 15.6 0.00 0.12 0.12 34 1012.2
20260506015024 64 211 9.6 17.4 0.00 0.12 0.12 33 1012.1
20260506014534 64 188 9.6 17.4 0.00 0.12 0.12 32 1012.1
20260506014022 64 213 8.7 17.4 0.00 0.12 0.12 32 1012.1
20260506013522 65 232 12.2 18.2 0.00 0.12 0.12 32 1012.1
20260506013035 65 219 9.6 18.2 0.00 0.12 0.12 32 1011.9
20260506012522 65 197 10.4 15.6 0.00 0.12 0.12 32 1011.7
20260506012022 65 218 7.0 13.9 0.00 0.12 0.12 31 1011.7
20260506011540 65 214 6.1 14.8 0.00 0.12 0.12 32 1011.5
20260506011022 65 200 6.1 14.8 0.00 0.12 0.12 31 1011.7
20260506010522 65 145 7.8 13.9 0.00 0.12 0.12 31 1011.6
20260506010036 65 198 7.0 16.5 0.00 0.12 0.12 32 1011.5
20260506005522 66 208 9.6 16.5 0.00 0.12 0.12 31 1011.5
20260506005025 66 244 7.0 20.9 0.00 0.12 0.12 30 1011.4
20260506004535 66 231 9.6 20.9 0.00 0.12 0.12 30 1011.5
20260506004022 66 223 10.4 20.0 0.00 0.12 0.12 30 1011.4
20260506003522 67 182 7.0 18.2 0.00 0.12 0.12 29 1011.4
20260506003033 67 192 8.7 18.2 0.00 0.12 0.12 29 1011.4
20260506002522 67 186 10.4 16.5 0.00 0.12 0.12 29 1011.1
20260506002024 67 162 7.0 22.6 0.00 0.12 0.12 28 1011.1
20260506001541 68 156 9.6 22.6 0.00 0.12 0.12 29 1011.2
20260506001022 67 184 7.8 13.0 0.00 0.12 0.12 29 1011.2
20260506000525 67 138 7.8 19.1 0.00 0.12 0.12 30 1011.1
20260506000042 67 196 9.6 19.1 0.00 0.12 0.12 30 1011.4
20260505235523 67 173 10.4 19.1 0.00 0.12 0.12 28 1011.4
20260505235023 68 210 8.7 16.5 0.00 0.12 0.12 29 1011.4
20260505234538 68 216 9.6 18.2 0.00 0.12 0.12 27 1011.2
20260505234019 68 210 12.2 25.2 0.00 0.12 0.12 28 1011.1
20260505233523 68 175 11.3 25.2 0.00 0.12 0.12 28 1011.5
20260505233037 69 188 6.1 20.9 0.00 0.12 0.12 28 1011.5
20260505232521 69 193 9.6 25.2 0.00 0.12 0.12 26 1011.2
20260505232026 69 159 10.4 25.2 0.00 0.12 0.12 26 1011.2
20260505231548 70 150 11.3 20.0 0.00 0.12 0.12 25 1011.1
20260505231025 69 161 10.4 23.5 0.00 0.12 0.12 27 1011.2
20260505230524 70 205 10.4 24.3 0.00 0.12 0.12 24 1011.2
20260505230040 70 232 12.2 24.3 0.00 0.12 0.12 23 1011.3
20260505225522 70 195 13.0 23.5 0.00 0.12 0.12 24 1011.2
20260505225019 70 168 7.8 21.7 0.00 0.12 0.12 26 1011.4
20260505224539 68 198 9.6 21.7 0.00 0.12 0.12 28 1011.5
20260505224022 69 159 9.6 22.6 0.00 0.12 0.12 28 1011.5
20260505223523 70 157 9.6 22.6 0.00 0.12 0.12 26 1011.5
20260505223037 69 208 13.9 22.6 0.00 0.12 0.12 27 1011.7
20260505222522 69 201 9.6 27.8 0.00 0.12 0.12 28 1011.8
20260505222025 69 142 13.0 27.8 0.00 0.12 0.12 28 1011.7
20260505221534 68 141 11.3 20.0 0.00 0.12 0.12 32 1011.5
20260505221022 68 171 7.8 19.1 0.00 0.12 0.12 34 1011.8
20260505220526 68 193 9.6 16.5 0.00 0.12 0.12 34 1011.9
20260505220033 69 225 9.6 17.4 0.00 0.12 0.12 33 1012.0
20260505215523 70 127 10.4 17.4 0.00 0.12 0.12 31 1012.1
20260505215019 69 150 11.3 22.6 0.00 0.12 0.12 34 1012.1
20260505214550 69 171 12.2 22.6 0.00 0.12 0.12 32 1012.1
20260505214021 70 157 12.2 23.5 0.00 0.12 0.12 31 1012.3
20260505213522 69 181 13.9 24.3 0.00 0.12 0.12 33 1012.3
20260505213039 71 188 13.9 24.3 0.00 0.12 0.12 30 1012.4
20260505212520 70 156 12.2 24.3 0.00 0.12 0.12 32 1012.6
20260505212019 70 193 8.7 20.0 0.00 0.12 0.12 33 1012.6
20260505211536 70 165 9.6 17.4 0.00 0.12 0.12 34 1012.7
20260505211021 69 171 9.6 17.4 0.00 0.12 0.12 37 1012.7
20260505210518 70 134 9.6 20.0 0.00 0.12 0.12 35 1012.8
20260505210035 71 176 12.2 20.0 0.00 0.12 0.12 36 1012.9
20260505205527 70 166 9.6 18.2 0.00 0.12 0.12 36 1013.0
20260505205023 70 144 7.0 13.9 0.00 0.12 0.12 36 1013.0
20260505204540 69 210 7.0 19.1 0.00 0.12 0.12 38 1013.3
20260505204022 69 232 11.3 19.1 0.00 0.12 0.12 35 1013.3
20260505203522 70 136 7.8 22.6 0.00 0.12 0.12 35 1013.0
20260505203056 69 142 7.0 23.5 0.00 0.12 0.12 37 1013.2
20260505202521 70 200 10.4 23.5 0.00 0.12 0.12 37 1013.4
20260505202023 69 174 10.4 23.5 0.00 0.12 0.12 39 1013.3
20260505201541 69 182 10.4 24.3 0.00 0.12 0.12 37 1013.4
20260505201026 69 198 11.3 24.3 0.00 0.12 0.12 39 1013.5
20260505200523 69 148 8.7 20.9 0.00 0.12 0.12 42 1013.4
20260505200043 68 158 8.7 19.1 0.00 0.12 0.12 42 1013.5
20260505195524 68 208 9.6 19.1 0.00 0.12 0.12 43 1013.6
20260505195022 68 185 9.6 21.7 0.00 0.12 0.12 42 1013.7
20260505194535 67 167 13.0 21.7 0.00 0.12 0.12 42 1013.7
20260505194026 67 142 10.4 19.1 0.00 0.12 0.12 43 1013.8
20260505193522 65 175 11.3 20.9 0.00 0.12 0.12 44 1013.9
20260505193034 66 202 10.4 20.9 0.00 0.12 0.12 45 1013.9
20260505192523 65 225 11.3 21.7 0.00 0.12 0.12 43 1013.8
20260505192020 66 139 7.8 23.5 0.00 0.12 0.12 45 1013.8
20260505191539 66 206 13.0 23.5 0.00 0.12 0.12 43 1014.0
20260505191023 67 181 10.4 19.1 0.00 0.12 0.12 44 1014.1
20260505190519 66 152 7.0 19.1 0.00 0.12 0.12 45 1014.2
20260505190037 64 360 9.6 19.1 0.00 0.12 0.12 48 1014.1
20260505185522 64 202 9.6 20.9 0.00 0.12 0.12 47 1014.3
20260505185021 64 186 8.7 22.6 0.00 0.12 0.12 46 1014.4
20260505184537 64 221 14.8 22.6 0.00 0.12 0.12 46 1014.5
20260505184026 64 235 10.4 22.6 0.00 0.12 0.12 45 1014.4
20260505183521 64 194 10.4 22.6 0.00 0.12 0.12 46 1014.7
20260505183036 64 217 12.2 24.3 0.00 0.12 0.12 43 1014.5
20260505182522 65 211 5.2 24.3 0.00 0.12 0.12 49 1014.3
20260505182019 64 229 8.7 20.0 0.00 0.12 0.12 46 1014.5
20260505181542 64 219 7.8 20.9 0.00 0.12 0.12 52 1014.5
20260505181023 64 195 10.4 20.9 0.00 0.12 0.12 50 1014.5
20260505180522 64 165 7.0 17.4 0.00 0.12 0.12 53 1014.6
20260505180039 64 232 7.0 17.4 0.00 0.12 0.12 51 1014.6
20260505175522 65 257 7.0 14.8 0.00 0.12 0.12 54 1014.9
20260505175019 63 125 6.1 14.8 0.00 0.12 0.12 53 1014.6
20260505174541 63 186 4.3 14.8 0.00 0.12 0.12 58 1014.8
20260505174018 63 142 7.0 14.8 0.00 0.12 0.12 57 1014.4
20260505173522 63 170 8.7 14.8 0.00 0.12 0.12 54 1014.9
20260505173035 63 172 4.3 17.4 0.00 0.12 0.12 58 1014.9
20260505172521 63 233 9.6 17.4 0.00 0.12 0.12 60 1014.9
20260505172022 62 198 5.2 16.5 0.00 0.12 0.12 61 1014.8
20260505171533 62 159 6.1 21.7 0.00 0.12 0.12 61 1014.8
20260505171023 61 199 7.0 21.7 0.00 0.12 0.12 64 1014.8
20260505170523 60 124 8.7 20.9 0.00 0.12 0.12 61 1014.7
20260505170045 60 167 9.6 19.1 0.00 0.12 0.12 64 1014.6
20260505165523 59 169 7.8 14.8 0.00 0.12 0.12 67 1014.8
20260505165019 59 162 7.0 13.0 0.00 0.12 0.12 66 1014.9
20260505164533 58 188 6.1 14.8 0.00 0.12 0.12 70 1014.8
20260505164024 57 189 5.2 15.6 0.01 0.12 0.12 68 1015.0
20260505163519 57 181 8.7 15.6 0.01 0.12 0.12 69 1015.0
20260505163037 56 170 7.0 12.2 0.01 0.12 0.12 72 1015.0
20260505162521 56 167 6.1 13.9 0.01 0.12 0.12 71 1014.9
20260505162022 55 155 6.1 13.9 0.01 0.12 0.12 75 1014.9
20260505161535 55 194 6.1 15.6 0.01 0.12 0.12 77 1015.0
20260505161022 54 173 7.8 15.6 0.02 0.12 0.12 77 1015.0
20260505160522 54 186 6.1 13.9 0.02 0.12 0.12 78 1014.8
20260505153037 56 152 8.7 18.2 0.09 0.11 0.11 75 1014.5
20260505152523 56 182 7.8 14.8 0.09 0.11 0.11 81 1014.6
20260505152022 54 175 6.1 13.0 0.10 0.11 0.11 79 1014.3
20260505151553 53 161 3.5 13.0 0.10 0.11 0.11 81 1014.1
20260505151022 53 145 7.0 13.0 0.09 0.10 0.10 79 1014.3
20260505150523 53 160 6.1 16.5 0.08 0.09 0.09 78 1014.5
20260505140522 55 148 4.3 9.6 0.01 0.01 0.01 69 1013.7
20260505125022 53 0 0.0 3.5 0.00 0.00 0.00 79 1013.9
20260505124541 52 168 1.7 5.2 0.00 0.00 0.00 78 1014.3
20260505124027 53 168 2.6 5.2 0.00 0.00 0.00 76 1014.1
20260505123522 53 115 0.9 6.1 0.00 0.00 0.00 77 1014.6
20260505123040 53 115 1.7 7.0 0.00 0.00 0.00 73 1014.5
20260505122522 54 118 2.6 7.8 0.00 0.00 0.00 72 1014.3
20260505122022 54 157 2.6 7.8 0.00 0.00 0.00 68 1014.3
20260505121537 54 141 3.5 7.8 0.00 0.00 0.00 67 1014.3
20260505121023 54 160 4.3 7.8 0.00 0.00 0.00 65 1014.1
20260505120524 54 145 4.3 9.6 0.00 0.00 0.00 65 1014.1
20260505120039 55 156 5.2 9.6 0.00 0.00 0.00 65 1014.0
20260505115521 55 163 3.5 7.0 0.00 0.00 0.00 65 1014.1
20260505115023 55 197 3.5 7.0 0.00 0.00 0.00 64 1014.2
20260505114541 55 168 2.6 5.2 0.00 0.00 0.00 62 1014.3
20260505114024 55 190 3.5 5.2 0.00 0.00 0.00 62 1014.3
20260505113522 55 199 2.6 5.2 0.00 0.00 0.00 61 1014.3
20260505113041 55 176 1.7 5.2 0.00 0.00 0.00 60 1014.6
20260505112522 56 167 1.7 5.2 0.00 0.00 0.00 60 1014.5
20260505112022 56 113 0.9 6.1 0.00 0.00 0.00 59 1014.5
20260505111541 56 113 1.7 6.1 0.00 0.00 0.00 57 1014.7
20260505111022 57 173 2.6 6.1 0.00 0.00 0.00 53 1014.7
20260505110523 57 208 4.3 6.1 0.00 0.00 0.00 52 1014.7
20260505102022 57 214 0.9 2.6 0.00 0.00 0.00 53 1015.0
20260505101541 57 0 0.9 3.5 0.00 0.00 0.00 49 1014.7
20260505101022 57 214 0.9 5.2 0.00 0.00 0.00 49 1014.7
20260505100523 57 214 2.6 5.2 0.00 0.00 0.00 50 1014.7
20260505100035 57 203 3.5 5.2 0.00 0.00 0.00 50 1014.9
20260505095522 57 217 1.7 6.1 0.00 0.00 0.00 50 1014.7
20260505095022 57 207 3.5 6.1 0.00 0.00 0.00 51 1014.9
20260505094537 57 222 4.3 6.1 0.00 0.00 0.00 51 1014.9
20260505094022 56 205 3.5 5.2 0.00 0.00 0.00 52 1014.9
20260505093522 56 200 3.5 5.2 0.00 0.00 0.00 53 1015.1
20260505093040 57 163 2.6 5.2 0.00 0.00 0.00 52 1015.0
20260505092522 57 159 1.7 5.2 0.00 0.00 0.00 51 1015.1
20260505092022 58 210 0.0 3.5 0.00 0.00 0.00 48 1015.1
20260505091538 58 210 0.9 3.5 0.00 0.00 0.00 47 1015.1
20260505091024 58 210 0.9 3.5 0.00 0.00 0.00 47 1015.1
20260505090522 58 0 1.7 4.3 0.00 0.00 0.00 46 1015.1
20260505090051 58 210 1.7 5.2 0.00 0.00 0.00 47 1015.1
20260505085524 58 210 1.7 5.2 0.00 0.00 0.00 46 1015.1
20260505085022 58 171 2.6 5.2 0.00 0.00 0.00 47 1015.4
20260505084537 58 171 2.6 5.2 0.00 0.00 0.00 45 1015.3
20260505084022 58 0 0.9 5.2 0.00 0.00 0.00 44 1015.1
20260505083523 57 153 1.7 4.3 0.00 0.00 0.00 46 1015.1
20260505083039 57 203 1.7 6.1 0.00 0.00 0.00 48 1015.2
20260505082522 57 203 2.6 6.1 0.00 0.00 0.00 48 1015.3
20260505082019 57 212 2.6 4.3 0.00 0.00 0.00 51 1015.7
20260505081542 57 196 1.7 6.1 0.00 0.00 0.00 53 1015.8
20260505081023 56 189 3.5 6.1 0.00 0.00 0.00 52 1015.8
20260505080522 57 189 1.7 5.2 0.00 0.00 0.00 52 1015.7
20260505080033 57 181 2.6 5.2 0.00 0.00 0.00 51 1015.5
20260505075522 57 180 2.6 6.1 0.00 0.00 0.00 50 1015.6
20260505075022 57 182 3.5 6.1 0.00 0.00 0.00 50 1015.5
20260505074535 57 202 3.5 7.0 0.00 0.00 0.00 51 1015.6
20260505074022 57 173 2.6 7.0 0.00 0.00 0.00 52 1015.7
20260505073523 57 157 2.6 5.2 0.00 0.00 0.00 50 1015.8
20260505073038 57 208 3.5 5.2 0.00 0.00 0.00 50 1015.8
20260505072523 57 177 3.5 5.2 0.00 0.00 0.00 49 1015.7
20260505072023 58 177 2.6 5.2 0.00 0.00 0.00 49 1015.6
20260505071536 58 0 0.9 4.3 0.00 0.00 0.00 48 1015.6
20260505071022 58 212 3.5 5.2 0.00 0.00 0.00 49 1015.8
20260505070525 58 219 2.6 5.2 0.00 0.00 0.00 48 1015.8
20260505070042 58 211 3.5 5.2 0.00 0.00 0.00 48 1015.7
20260505065524 58 190 1.7 4.3 0.00 0.00 0.00 48 1015.8
20260505065022 58 207 2.6 4.3 0.00 0.00 0.00 47 1015.8
20260505064536 58 213 1.7 4.3 0.00 0.00 0.00 46 1015.8
20260505064022 58 213 1.7 4.3 0.00 0.00 0.00 47 1015.8
20260505063522 58 213 3.5 5.2 0.00 0.00 0.00 46 1015.8
20260505063042 58 203 2.6 5.2 0.00 0.00 0.00 46 1015.8
20260505062524 58 212 3.5 7.0 0.00 0.00 0.00 46 1015.9
20260505062023 58 214 4.3 7.0 0.00 0.00 0.00 46 1016.0
20260505061543 58 173 1.7 4.3 0.00 0.00 0.00 47 1015.9
20260505061027 59 0 0.0 2.6 0.00 0.00 0.00 46 1015.7
20260505060522 59 178 0.0 2.6 0.00 0.00 0.00 46 1015.9
20260505060037 59 0 0.9 3.5 0.00 0.00 0.00 47 1016.1